Regional Weather Roundup
Issued by NWS

Home | Current Version | Previous Version | Graphics & Text | Print | Product List | Glossary On
Versions: 1 2 3 4 5 6 7 8 9 10 11 12 13 14 15 16 17 18 19 20 21 22 23 24 25 26 27 28 29 30 31 32 33 34 35 36 37 38 39 40 41 42 43 44 45 46 47 48 49 50
707
ASUS43 KLMK 260402
RWRKY
KENTUCKY REGIONAL WEATHER ROUNDUP
NATIONAL WEATHER SERVICE LOUISVILLE KY
1200 AM EDT MON JUN 26 2017

NOTE "FAIR" INDICATES FEW OR NO CLOUDS BELOW 12,000 FEET
WITH NO SIGNIFICANT WEATHER AND/OR OBSTRUCTIONS TO VISIBILITY.

KYZ001>023-026-027-061>063-070>075-260500-
WESTERN AND SOUTH CENTRAL KENTUCKY

CITY           SKY/WX    TMP DP  RH WIND       PRES   REMARKS
PADUCAH        CLEAR     64  59  83 SW3       30.16R
HENDERSON      CLEAR     63  56  78 CALM      30.17R
OWENSBORO      PTCLDY    67  53  61 NW5       30.17R
HOPKINSVILLE   CLEAR     68  56  66 SW5       30.17R
BOWLING GREEN  PTCLDY    66  58  75 NE3       30.17S
GLASGOW        NOT AVBL
$$

KYZ024-025-028>034-038-045-046-053-260500-
NORTH CENTRAL KENTUCKY

CITY           SKY/WX    TMP DP  RH WIND       PRES   REMARKS
LOUISVILLE/SDF PTCLDY    70  49  47 CALM      30.15S
LOUISVILLE/LOU PTCLDY    69  51  52 CALM      30.15S
FORT KNOX      CLEAR     59  52  78 CALM      30.15R
$$

KYZ035>037-039>044-047>052-055>060-089>105-260500-
NORTHEAST KENTUCKY

CITY           SKY/WX    TMP DP  RH WIND       PRES   REMARKS
LEXINGTON      CLEAR     65  47  52 SW3       30.17R
COVINGTON      PTCLDY    62  49  62 CALM      30.13S
FRANKFORT      PTCLDY    61  49  64 CALM      30.14S
$$

KYZ054-064>069-076>088-106>120-260500-
SOUTHEAST KENTUCKY

CITY           SKY/WX    TMP DP  RH WIND       PRES   REMARKS
JACKSON        PTCLDY    64  51  62 CALM      30.17S
LONDON         PTCLDY    62  54  74 CALM      30.19R
SOMERSET       PTCLDY    59  54  82 CALM      30.20S
MIDDLESBORO    PTCLDY    59  54  83 CALM      30.22R
MONTICELLO     CLEAR     59  56  89 CALM      30.21S
$$





USA.gov is the U.S. government's official web portal to all federal, state and local government web resources and services.